Home > Time Zones > World Clock > Weather > U.S.A. > Adak > Past weeks

Flag Weather past 2 weeks in Adak, Alaska, U.S.A.

Now
43 °F

Mostly cloudy.


Feels Like: 32 °F
Forecast: 41 / 44 °F
Wind: 31 mph from West

Location: Adak

Current Time: Oct 31, 2014 at 9:51:29 AM

Latest Report: Oct 31, 2014 at 9:16 AM


Visibility: 10 mi

Pressure: 29.29 "Hg

Humidity: 66%

Dew point: 32 °F

Location of AdakLocation

Historic Weather in Adak — Graph

°F

Adak temperature yesterday

Maximum temperature yesterday: 54 °F (at 6:36 AM)
Minimum temperature yesterday: 43 °F (at 10:36 PM)
Average temperature yesterday: 49 °F

Past Weeks' High & Low Weather Summary

 TemperatureHumidityPressure
High54 °F (Oct 30, 6:36 AM)87% (Oct 19, 12:16 AM)30.41 "Hg (Oct 19, 12:16 AM)
Low30 °F (Oct 24, 11:36 PM)45% (Oct 28, 8:36 AM)28.88 "Hg (Oct 30, 3:56 PM)
Average44 °F70%29.95 "Hg
* Reported Oct 16 8:16 AM — Oct 31 8:36 AM, Adak, Weather by CustomWeather, © 2014

Note: Actual official high and low records may vary slightly from our data, if they occured in-between our weather recording intervals... More about our weather records

Advertising

Adak weather history for previous 24 hours

 ConditionsComfort  
Time TempWeatherWind HumidityBarometerVisibility
8:36 AM
Oct 31
43 °FOvercast.28 mph66%29.31 "Hg10 mi
8:16 AM43 °FMostly cloudy.20 mph66%29.32 "Hg10 mi
7:56 AM43 °FMostly cloudy.25 mph71%29.32 "Hg10 mi
7:36 AM43 °FPassing clouds.28 mph66%29.32 "Hg10 mi
6:56 AM43 °FPassing clouds.25 mph71%29.32 "Hg10 mi
6:36 AM43 °FPartly cloudy.33 mph71%29.31 "Hg10 mi
6:16 AM43 °FPassing clouds.26 mph71%29.32 "Hg10 mi
5:56 AM43 °FPassing clouds.29 mph71%29.32 "Hg10 mi
5:36 AM43 °FMostly cloudy.29 mph71%29.32 "Hg10 mi
5:16 AM43 °FPassing clouds.30 mph76%29.32 "Hg10 mi
4:56 AM43 °FPassing clouds.31 mph71%29.32 "Hg10 mi
4:36 AM43 °FPartly cloudy.31 mph71%29.32 "Hg10 mi
4:16 AM43 °FPartly cloudy.28 mph71%29.32 "Hg10 mi
3:56 AM43 °FPartly cloudy.30 mph76%29.31 "Hg10 mi
3:36 AM43 °FMostly cloudy.33 mph71%29.32 "Hg10 mi
2:56 AM43 °FPassing clouds.32 mph76%29.31 "Hg10 mi
2:36 AM45 °FMostly cloudy.32 mph71%29.31 "Hg10 mi
1:56 AM43 °FPassing clouds.30 mph71%29.30 "Hg10 mi
1:36 AM43 °FPassing clouds.32 mph71%29.30 "Hg10 mi
1:16 AM43 °FPassing clouds.33 mph71%29.30 "Hg10 mi
12:56 AM43 °FPassing clouds.35 mph71%29.30 "Hg10 mi
12:36 AM43 °FPassing clouds.30 mph71%29.30 "Hg10 mi
12:16 AM43 °FClear.30 mph71%29.30 "Hg10 mi
11:56 PM
Oct 30
43 °FPassing clouds.31 mph71%29.29 "Hg10 mi
11:36 PM43 °FPassing clouds.38 mph71%29.29 "Hg10 mi
11:16 PM43 °FPartly cloudy.33 mph71%29.28 "Hg10 mi
10:56 PM43 °FPartly cloudy.33 mph71%29.27 "Hg10 mi
10:36 PM43 °FMostly cloudy.37 mph71%29.27 "Hg10 mi
10:16 PM45 °FOvercast.38 mph66%29.26 "Hg10 mi
9:56 PM45 °FMostly cloudy.32 mph66%29.26 "Hg10 mi
9:36 PM45 °FMostly cloudy.33 mph57%29.25 "Hg10 mi
8:56 PM45 °FMostly cloudy.35 mph61%29.23 "Hg10 mi
8:36 PM45 °FOvercast.45 mph66%29.20 "Hg10 mi
8:16 PM45 °FCloudy.38 mph71%29.18 "Hg10 mi
7:36 PM45 °FCloudy.45 mph71%29.12 "Hg9 mi
7:16 PM45 °FCloudy.45 mph71%29.08 "Hg5 mi
6:36 PM45 °FMore clouds than sun.45 mph71%29.03 "Hg8 mi
5:36 PM46 °FBroken clouds.39 mph71%28.96 "Hg3 mi
4:56 PM46 °FBroken clouds.35 mph76%28.93 "Hg4 mi
4:36 PM46 °FCloudy.30 mph76%28.92 "Hg5 mi
4:16 PM46 °FMostly cloudy.32 mph82%28.90 "Hg4 mi
3:56 PM48 °FCloudy.35 mph76%28.88 "Hg4 mi
3:36 PM48 °FCloudy.37 mph76%28.89 "Hg3 mi
2:56 PM48 °FMore clouds than sun.26 mph76%28.91 "Hg3 mi
2:36 PM48 °FMostly cloudy.32 mph76%28.94 "Hg9 mi
2:16 PM50 °FMostly cloudy.35 mph67%28.96 "Hg9 mi
1:56 PM50 °FCloudy.43 mph71%28.97 "Hg6 mi
1:36 PM52 °FMostly cloudy.29 mph77%28.99 "Hg2 mi
12:56 PM52 °FCloudy.37 mph77%29.02 "Hg2 mi
12:36 PM54 °FCloudy.37 mph72%29.03 "Hg5 mi
11:56 AM54 °FMostly cloudy.37 mph72%29.06 "Hg1 mi
11:36 AM54 °FMostly cloudy.39 mph77%29.09 "Hg4 mi
10:16 AM52 °FOvercast.28 mph77%29.19 "Hg2 mi
9:56 AM52 °FOvercast.30 mph77%29.22 "Hg5 mi
9:16 AM54 °FPartly cloudy.29 mph77%29.27 "Hg4 mi
Weather by CustomWeather, © 2014

See weather overviewHow to use our weather pages